This is the latest recevied weather packets stored in our database for station/object PA3BWK. If no packets are shown the sender has not sent any weather packets the latest 10 day(s).
| Time | Temp. | Humidity | Pressure | Rain* | Wind** | Luminosity | Snow |
|---|---|---|---|---|---|---|---|
| 1777640705 | 23.89° C | 29% | 1023.6 hPa | 0 mm | - | 754 W/m² | - |
| 1777640647 | 23.89° C | 28% | 1023.6 hPa | 0 mm | - | 756 W/m² | - |
| 1777640587 | 23.89° C | 29% | 1023.5 hPa | 0 mm | - | 760 W/m² | - |
| 1777640524 | 23.89° C | 31% | 1023.6 hPa | 0 mm | - | 756 W/m² | - |
| 1777640464 | 23.33° C | 28% | 1023.6 hPa | 0 mm | - | 763 W/m² | - |
| 1777640404 | 23.33° C | 28% | 1023.5 hPa | 0 mm | - | 761 W/m² | - |
| 1777640344 | 23.33° C | 28% | 1023.6 hPa | 0 mm | - | 765 W/m² | - |
| 1777640284 | 23.33° C | 28% | 1023.6 hPa | 0 mm | - | 767 W/m² | - |
| 1777640226 | 23.33° C | 29% | 1023.6 hPa | 0 mm | - | 767 W/m² | - |
| 1777640164 | 23.33° C | 29% | 1023.6 hPa | 0 mm | - | 763 W/m² | - |
| 1777640106 | 23.89° C | 30% | 1023.6 hPa | 0 mm | - | 768 W/m² | - |
| 1777640045 | 23.89° C | 28% | 1023.7 hPa | 0 mm | - | 763 W/m² | - |
| 1777639986 | 23.89° C | 28% | 1023.7 hPa | 0 mm | - | 767 W/m² | - |
| 1777639924 | 23.89° C | 29% | 1023.7 hPa | 0 mm | - | 767 W/m² | - |
| 1777639866 | 23.89° C | 32% | 1023.7 hPa | 0 mm | - | 767 W/m² | - |
| 1777639805 | 23.89° C | 30% | 1023.7 hPa | 0 mm | - | 772 W/m² | - |
| 1777639744 | 23.33° C | 29% | 1023.6 hPa | 0 mm | - | 774 W/m² | - |
| 1777639685 | 23.33° C | 28% | 1023.7 hPa | 0 mm | - | 776 W/m² | - |
| 1777639624 | 23.33° C | 29% | 1023.8 hPa | 0 mm | - | 772 W/m² | - |
| 1777639564 | 23.33° C | 31% | 1023.8 hPa | 0 mm | - | 774 W/m² | - |
| 1777639504 | 23.33° C | 31% | 1023.8 hPa | 0 mm | - | 774 W/m² | - |
| 1777639454 | 23.33° C | 29% | 1023.8 hPa | 0 mm | - | 776 W/m² | - |
| 1777639384 | 23.33° C | 31% | 1023.8 hPa | 0 mm | - | 776 W/m² | - |
| 1777639323 | 23.33° C | 29% | 1023.8 hPa | 0 mm | - | 779 W/m² | - |
| 1777639264 | 23.33° C | 29% | 1023.9 hPa | 0 mm | - | 776 W/m² | - |
* Rain latest hour (hover to see other rain measurements)
** Current wind speed in m/s (hover to see current wind gust speed)